Home   Weather   Eberswalde   Past weeks

Flag for Germany Past Weather in Eberswalde, Brandenburg, Germany — Yesterday and Last 2 Weeks

Now
70 °F

Passing clouds.


Feels Like: 70 °F
Forecast: 51 / 78 °F
Wind: 5 mph from Northwest

Location: Berlin-Tegel

Current Time: Aug 30, 2016 at 7:25:37 PM

Latest Report: Aug 30, 2016 at 6:50 PM


Visibility: N/A

Pressure: 30.24 "Hg

Humidity: 40%

Dew Point: 45 °F

Location of EberswaldeLocation

Past Weather in Eberswalde — Graph

°F

Eberswalde Temperature Yesterday

Maximum temperature yesterday: 73 °F (at 2:20 PM)
Minimum temperature yesterday: 61 °F (at 11:20 PM)
Average temperature yesterday: 68 °F

High & Low Weather Summary for the Past Weeks

 TemperatureHumidityPressure
High95 °F (Aug 28, 3:20 PM)100% (Aug 17, 3:50 AM)30.33 "Hg (Aug 17, 3:50 AM)
Low46 °F (Aug 17, 5:50 AM)12% (Aug 26, 4:20 PM)29.80 "Hg (Aug 18, 4:20 PM)
Average68 °F64%30.06 "Hg
* Reported Aug 15 6:20 PM — Aug 30 6:20 PM, Eberswalde, Weather by CustomWeather, © 2016

Note: Actual official high and low records may vary slightly from our data, if they occured in-between our weather recording intervals... More about our weather records

Advertising

Eberswalde Weather History for the Previous 24 Hours

Scroll right to see more
 ConditionsComfort  
Time TempWeatherWind HumidityBarometerVisibility
6:20 PM
Tue, Aug 30
72 °FPassing clouds.6 mph38%30.24 "HgN/A
5:50 PM72 °FPassing clouds.7 mph38%30.24 "HgN/A
5:20 PM72 °FPassing clouds.7 mph38%30.27 "HgN/A
4:50 PM70 °FPassing clouds.6 mph40%30.27 "HgN/A
4:20 PM72 °FPassing clouds.6 mph41%30.27 "HgN/A
3:50 PM70 °FPassing clouds.7 mph43%30.27 "HgN/A
3:20 PM70 °FPassing clouds.7 mph43%30.27 "HgN/A
2:50 PM72 °FPassing clouds.8 mph41%30.27 "HgN/A
2:20 PM70 °FScattered clouds.9 mph43%30.30 "HgN/A
1:50 PM70 °FScattered clouds.10 mph46%30.30 "HgN/A
1:20 PM70 °FScattered clouds.10 mph46%30.30 "HgN/A
12:50 PM66 °FScattered clouds.9 mph52%30.30 "HgN/A
12:20 PM68 °FScattered clouds.9 mph49%30.30 "HgN/A
11:50 AM68 °FScattered clouds.10 mph53%30.30 "HgN/A
11:20 AM68 °FScattered clouds.8 mph53%30.30 "HgN/A
10:50 AM66 °FScattered clouds.10 mph56%30.30 "HgN/A
10:20 AM64 °FPassing clouds.8 mph64%30.30 "HgN/A
9:50 AM63 °FPassing clouds.7 mph68%30.30 "HgN/A
9:20 AM61 °FPassing clouds.8 mph72%30.30 "HgN/A
8:50 AM59 °FPassing clouds.9 mph77%30.27 "HgN/A
8:20 AM57 °FPassing clouds.8 mph82%30.27 "HgN/A
7:50 AM55 °FSunny.8 mph82%30.24 "Hg10 mi
7:20 AM54 °FSunny.7 mph88%30.24 "Hg10 mi
6:50 AM54 °FClear.8 mph88%30.24 "Hg10 mi
6:20 AM52 °FClear.8 mph88%30.24 "Hg10 mi
5:50 AM52 °FClear.8 mph88%30.21 "Hg10 mi
5:20 AM54 °FClear.7 mph82%30.21 "Hg10 mi
4:50 AM54 °FClear.8 mph82%30.21 "Hg10 mi
4:20 AM54 °FPassing clouds.7 mph82%30.21 "HgN/A
3:50 AM54 °FPassing clouds.7 mph82%30.21 "HgN/A
3:20 AM55 °FClear.7 mph77%30.18 "Hg10 mi
2:50 AM55 °FClear.7 mph77%30.18 "Hg10 mi
2:20 AM57 °FClear.7 mph72%30.18 "Hg10 mi
1:50 AM57 °FClear.7 mph77%30.18 "Hg10 mi
1:20 AM57 °FPassing clouds.7 mph77%30.18 "HgN/A
12:50 AM59 °FClear.7 mph72%30.18 "Hg10 mi
12:20 AM59 °FPassing clouds.8 mph72%30.15 "HgN/A
11:50 PM
Mon, Aug 29
61 °FPassing clouds.7 mph68%30.15 "HgN/A
11:20 PM61 °FClear.8 mph68%30.15 "Hg10 mi
10:50 PM63 °FPassing clouds.8 mph64%30.12 "HgN/A
10:20 PM63 °FPassing clouds.7 mph68%30.12 "HgN/A
9:50 PM64 °FClear.7 mph64%30.09 "Hg10 mi
9:20 PM64 °FPassing clouds.7 mph64%30.09 "HgN/A
8:50 PM66 °FPassing clouds.8 mph60%30.07 "HgN/A
8:20 PM68 °FPartly sunny.9 mph53%30.07 "HgN/A
7:50 PM68 °FPartly sunny.7 mph56%30.07 "HgN/A
7:20 PM68 °FScattered clouds.8 mph53%30.04 "HgN/A
Weather by CustomWeather, © 2016

See weather overviewHow to use our weather pages